Home > Weather > San Marino > Past weeks

Flag for San Marino Weather for the Past 2 Weeks in San Marino, San Marino

Now
50 °F

Passing clouds.


Feels Like: 50 °F
Forecast: 41 / 57 °F
Wind: No wind

Location: Rimini Airport

Current Time: May 5, 2016 at 5:51:49 AM

Latest Report: May 5, 2016 at 5:15 AM


Visibility: N/A

Pressure: 30.09 "Hg (27.77 "Hg at 666m altitude)

Humidity: 94%

Dew Point: 48 °F

Location of San MarinoLocation

Historic Weather in San Marino — Graph

°F

San Marino Temperature Yesterday

Maximum temperature yesterday: 66 °F (at 2:45 PM)
Minimum temperature yesterday: 52 °F (at 6:15 AM)
Average temperature yesterday: 60 °F

High & Low Weather Summary for the Past Weeks

 TemperatureHumidityPressure
High70 °F (Apr 27, 2:45 PM)100% (Apr 20, 4:15 AM)30.30 "Hg (Apr 20, 4:15 AM)
Low43 °F (Apr 21, 6:15 AM)38% (Apr 27, 5:15 PM)29.50 "Hg (Apr 24, 5:45 AM)
Average57 °F82%29.91 "Hg
* Reported Apr 20 4:15 AM — May 5 4:45 AM, San Marino, Weather by CustomWeather, © 2016

Note: Actual official high and low records may vary slightly from our data, if they occured in-between our weather recording intervals... More about our weather records

Advertising

San Marino Weather History for the Previous 24 Hours

Scroll right to see more
 ConditionsComfort  
Time TempWeatherWind HumidityBarometerVisibility
4:45 AM
Thu, May 5
50 °FPassing clouds.No wind94%30.09 "HgN/A
4:15 AM50 °FPassing clouds.3 mph94%30.09 "HgN/A
3:45 AM52 °FClear.3 mph94%30.12 "Hg10 mi
3:15 AM52 °FClear.3 mph94%30.09 "Hg10 mi
2:45 AM52 °FClear.No wind88%30.09 "Hg10 mi
2:15 AM52 °FClear.2 mph88%30.09 "Hg10 mi
1:15 AM52 °FClear.2 mph94%30.09 "Hg10 mi
12:45 AM52 °FClear.3 mph94%30.09 "Hg10 mi
12:15 AM54 °FClear.2 mph94%30.09 "Hg10 mi
11:45 PM
Wed, May 4
54 °FClear.5 mph94%30.07 "Hg10 mi
11:15 PM54 °FClear.5 mph94%30.07 "Hg10 mi
10:45 PM55 °FClear.5 mph88%30.07 "Hg10 mi
10:15 PM55 °FClear.6 mph88%30.07 "Hg10 mi
9:45 PM57 °FClear.5 mph82%30.07 "Hg10 mi
9:15 PM59 °FSunny.7 mph82%30.04 "Hg10 mi
8:45 PM61 °FSunny.8 mph77%30.04 "Hg10 mi
8:15 PM63 °FSunny.7 mph73%30.04 "Hg10 mi
7:45 PM63 °FSunny.7 mph77%30.04 "Hg10 mi
7:15 PM63 °FSunny.6 mph83%30.04 "Hg10 mi
6:45 PM64 °FSunny.9 mph68%30.04 "Hg10 mi
6:15 PM64 °FSunny.8 mph64%30.04 "Hg10 mi
5:45 PM64 °FSunny.8 mph52%30.04 "Hg10 mi
5:15 PM64 °FPassing clouds.7 mph49%30.04 "HgN/A
4:45 PM66 °FPassing clouds.7 mph49%30.04 "HgN/A
4:15 PM66 °FPassing clouds.6 mph49%30.04 "HgN/A
3:45 PM66 °FPassing clouds.6 mph49%30.04 "HgN/A
3:15 PM66 °FPassing clouds.8 mph52%30.04 "HgN/A
2:45 PM66 °FPassing clouds.8 mph52%30.04 "HgN/A
2:15 PM64 °FPassing clouds.8 mph56%30.04 "HgN/A
1:45 PM64 °FPassing clouds.8 mph60%30.04 "HgN/A
1:15 PM64 °FPassing clouds.10 mph60%30.04 "HgN/A
12:45 PM64 °FPassing clouds.12 mph60%30.04 "HgN/A
12:15 PM64 °FPassing clouds.13 mph64%30.04 "HgN/A
11:45 AM64 °FPassing clouds.13 mph64%30.04 "HgN/A
11:15 AM64 °FSunny.12 mph64%30.04 "Hg10 mi
10:45 AM63 °FSunny.13 mph73%30.04 "Hg10 mi
10:15 AM61 °FSunny.10 mph72%30.01 "Hg10 mi
9:45 AM61 °FSunny.9 mph72%30.01 "Hg10 mi
9:15 AM59 °FSunny.10 mph77%30.01 "Hg10 mi
8:45 AM59 °FSunny.12 mph77%30.01 "Hg10 mi
8:15 AM57 °FSunny.9 mph82%30.01 "Hg10 mi
7:45 AM52 °FSunny.3 mph100%29.98 "Hg10 mi
7:15 AM52 °FSunny.5 mph100%29.98 "Hg10 mi
6:45 AM52 °FClear.3 mph100%29.98 "Hg10 mi
6:15 AM52 °FClear.No wind100%29.98 "Hg10 mi
5:45 AM54 °FClear.No wind100%29.98 "Hg10 mi
5:15 AM54 °FPassing clouds.5 mph94%29.98 "HgN/A
Weather by CustomWeather, © 2016

See weather overviewHow to use our weather pages